Погода в Ыгдыре

Турция     39°55′20″N   44°02′41″E
В апреле 2022 года жителям России запретили посещать сайт meteo.paraplan.net по решению Генеральной прокуратуры. Аудитория сайта уменьшилась в 10 раз. Владельцы сайта не видят смысла в поддержке погодного сервера в таких условиях. Сайт будет закрыт в октябре.
темп.,
°C
ветер,
м/с
пор.,
м/с
влажн.,
%
обл.,
%
осадки,
мм/ч
давл.,
гПа
погр.,
м
3 октября, пн
пн300:00+17ссз1134100 0.0 100811
03:00+16с1138100 0.0 100811
06:00+15сз113999 0.0 100911
09:00+22св1126100 0.0 1009445
12:00+27св2218100 0.0 10071294
15:00+30всв32155 0.0 10051466
18:00+24юв33216 0.0 100618
21:00+21сз22275 0.0 100813
4 октября, вт
вт400:00+19сз11354 0.0 101011
03:00+17ссз11420 0.0 101111
06:00+16сз11460 0.0 101311
09:00+23всв11300 0.0 1014439
12:00+28в22180 0.0 10121241
15:00+31в33145 0.0 10102038
18:00+25в33190 0.0 101119
21:00+21зюз11220 0.0 101411
5 октября, ср
ср500:00+20з22250 0.0 101613
03:00+18ссв01260 0.0 101711
06:00+16сз11310 0.0 101811
09:00+24св21180 0.0 1018439
12:00+30в22137 0.0 10151091
15:00+32вюв561196 0.0 10133855
18:00+26вюв441554 0.0 101341
21:00+21с112065 0.0 101511
6 октября, чт
чт600:00+20ссз122252 0.0 101511
03:00+18ссв11255 0.0 101511
06:00+17сз22260 0.0 101714
09:00+24сз33210 0.0 1016591
12:00+29с11134 0.0 10131316
15:00+31всв331173 0.0 10101437
18:00+26всв2215100 0.0 101012
21:00+20зсз58425 0.0 1014160
7 октября, пт
пт700:00+19з69485 0.0 1016237
03:00+17з36555 0.0 1017112
06:00+16зсз33590 0.0 101853
09:00+21сз32410 0.0 1017895
12:00+25св22310 0.0 10151381
15:00+27в11250 0.0 10121496
18:00+23всв33320 0.0 101332
21:00+18всв02520 0.0 101617